STARLINK-1604

decayed
NORAD ID: 46122 Int'l Des: 2020-057 Owner: SPXS Country: US Constellation: starlink
LEOCIRCULAR
Group

About STARLINK-1604

Description loading...

Altitude History

Altitude vs Time

uPlot chart will show altitude changes over time

Two-Line Element Set

1 46122U 20057F 25060.29067889 .30557303 12656-4 38198-3 0 9993
2 46122 53.0243 108.2409 0004352 296.3193 113.7709 16.49431142251545
Epoch: Mar 1, 2025 • Age: 4764 hours

Current Status

Position data unavailable
Launch Date Aug 18, 2020
Age 5 years
Decay Date Mar 1, 2025
Type internet

Technical Details

Classification Payload
Mass 260.00 kg
Dry Mass 248.00 kg
Total Mass 260.00 kg
Length 0.20 m
Diameter 2.80 m
Span 9.00 m
Shape Box + pan
Manufacturer SPXS
Bus Type Starlink
Phase Status Reentered
Owner/State SPXS/US

Large Constellations

Loading constellations...